DW8871 Weather Reports


Display with metric or nautical units.
time (UTC)temp
F
wind
direction
speed
MPH
gust
MPH
rain 1hr
in
rain 24hr
in
rain mn
in
humidity
%
barometer
mb
20260504024528 62 0 0.0 0.0 0.00 0.00 0.00 76 1007.6
20260504023028 63 0 0.0 0.0 0.00 0.00 0.00 74 1007.6
20260504021530 64 0 0.0 0.0 0.00 0.00 0.00 72 1007.6
20260504020031 65 32 0.0 2.0 0.00 0.00 0.00 67 1007.6
20260504014537 67 0 0.0 2.0 0.00 0.00 0.00 60 1007.4
20260504013030 68 0 0.0 1.0 0.00 0.00 0.00 62 1007.3
20260504011534 70 0 0.0 0.0 0.00 0.00 0.00 57 1007.3
20260504010029 72 0 0.0 0.0 0.00 0.00 0.00 53 1007.4
20260504004533 74 0 0.0 0.0 0.00 0.00 0.00 51 1007.5
20260504003032 76 0 0.0 0.0 0.00 0.00 0.00 48 1007.5
20260504001532 77 0 0.0 0.0 0.00 0.00 0.00 42 1007.6
20260504000031 78 0 0.0 1.0 0.00 0.00 0.00 42 1007.9
20260503234539 78 0 0.0 2.0 0.00 0.00 0.00 37 1008.1
20260503233037 79 0 0.0 2.0 0.00 0.00 0.00 39 1007.9
20260503231534 80 0 0.0 4.0 0.00 0.00 0.00 36 1008.1
20260503230030 79 49 0.0 2.0 0.00 0.00 0.00 38 1008.3
20260503224528 81 0 0.0 4.0 0.00 0.00 0.00 35 1008.3
20260503223030 81 0 0.0 6.0 0.00 0.00 0.00 36 1008.4
20260503221536 81 0 1.0 6.0 0.00 0.00 0.00 37 1008.6
20260503220032 81 278 1.0 8.0 0.00 0.00 0.00 35 1008.8
20260503214530 81 0 0.0 7.0 0.00 0.00 0.00 35 1008.9
20260503213033 81 303 3.0 9.0 0.00 0.00 0.00 34 1009.2
20260503211531 81 0 2.0 7.0 0.00 0.00 0.00 38 1009.2
20260503210030 82 0 1.0 9.0 0.00 0.00 0.00 36 1009.4
20260503204530 81 67 0.0 9.0 0.00 0.00 0.00 37 1009.6
20260503203036 81 0 1.0 7.0 0.00 0.00 0.00 37 1009.7
20260503201532 80 296 4.0 11.0 0.00 0.00 0.00 37 1009.9
20260503200032 80 0 3.0 8.0 0.00 0.00 0.00 38 1010.1
20260503194532 79 0 2.0 9.0 0.00 0.00 0.00 38 1010.2
20260503193030 79 321 1.0 9.0 0.00 0.00 0.00 38 1010.4
20260503191533 78 286 5.0 12.0 0.00 0.00 0.00 44 1010.6
20260503190032 77 0 3.0 12.0 0.00 0.00 0.00 42 1010.7
20260503184532 77 271 2.0 12.0 0.00 0.00 0.00 45 1011.0
20260503183031 75 274 3.0 15.0 0.00 0.00 0.00 47 1011.2
20260503181531 75 229 4.0 12.0 0.00 0.00 0.00 47 1011.6
20260503180029 74 281 5.0 11.0 0.00 0.00 0.00 46 1012.0
20260503174528 74 295 6.0 14.0 0.00 0.00 0.00 46 1012.2
20260503173037 73 252 7.0 17.0 0.00 0.00 0.00 47 1012.3
20260503171538 72 331 5.0 16.0 0.00 0.00 0.00 47 1012.2
20260503081531 49 0 3.0 8.0 0.00 0.00 0.00 62 1015.6
20260503071529 49 235 3.0 7.0 0.00 0.00 0.00 64 1015.9
20260503054535 48 242 2.0 6.0 0.00 0.00 0.00 67 1016.8
20260503053033 48 228 2.0 4.0 0.00 0.00 0.00 68 1016.8
20260503051528 47 0 0.0 2.0 0.00 0.00 0.00 69 1016.9
20260503050037 48 0 0.0 1.0 0.00 0.00 0.00 68 1017.2
20260503050026 48 225 0.0 1.0 0.00 0.00 0.00 68 1016.3
20260503044531 47 0 0.0 2.0 0.00 0.00 0.00 70 1017.4
20260503043030 47 0 0.0 1.0 0.00 0.00 0.00 70 1017.6
20260503041537 47 0 0.0 0.0 0.00 0.00 0.00 72 1017.6
20260503040031 48 0 0.0 0.0 0.00 0.00 0.00 72 1017.9
20260503040016 48 134 0.0 0.0 0.00 0.00 0.00 73 1017.0
20260503034532 49 0 0.0 0.0 0.00 0.00 0.00 70 1017.8
20260503033036 49 0 0.0 1.0 0.00 0.00 0.00 69 1018.1
20260503031530 49 0 0.0 0.0 0.00 0.00 0.00 73 1018.2
20260503030044 49 0 0.0 0.0 0.00 0.00 0.00 72 1018.2
20260503030029 49 284 0.0 0.0 0.00 0.00 0.00 73 1017.2